Time,TemperatureF,DewpointF,PressureIn,WindDirection,WindDirectionDegrees,WindSpeedMPH,WindSpeedGustMPH,Humidity,HourlyPrecipIn,Conditions,Clouds,dailyrainin,SoftwareType,DateUTC
2013-12-07 00:00:00,67.4,66.2,30.16,West,264,0.0,0.0,96,0.00,,,0.00,Weather View 32 v70,2013-12-07 05:00:00,
2013-12-07 00:10:00,67.9,66.7,30.16,West,264,0.0,0.0,96,0.00,,,0.00,Weather View 32 v70,2013-12-07 05:10:00,
2013-12-07 00:20:00,67.9,66.7,30.16,West,264,0.0,0.0,96,0.00,,,0.00,Weather View 32 v70,2013-12-07 05:20:00,
2013-12-07 00:30:00,67.9,66.7,30.16,West,264,0.0,0.0,96,0.00,,,0.00,Weather View 32 v70,2013-12-07 05:30:00,
2013-12-07 00:40:00,67.8,66.6,30.16,West,264,0.0,0.0,96,0.00,,,0.00,Weather View 32 v70,2013-12-07 05:40:00,
2013-12-07 00:50:00,67.7,66.5,30.16,West,264,0.0,0.0,96,0.00,,,0.00,Weather View 32 v70,2013-12-07 05:50:00,
2013-12-07 00:53:00,67.7,66.5,30.16,West,264,0.0,0.0,96,0.00,,,0.00,Weather View 32 v70,2013-12-07 05:53:00,
2013-12-07 00:59:00,67.4,66.2,30.15,West,264,0.0,0.0,96,0.00,,,0.00,Weather View 32 v70,2013-12-07 05:59:00,
2013-12-07 01:09:00,67.4,66.2,30.15,West,264,0.0,0.0,96,0.00,,,0.00,Weather View 32 v70,2013-12-07 06:09:00,
2013-12-07 01:20:00,67.4,66.2,30.15,West,264,0.0,0.0,96,0.00,,,0.00,Weather View 32 v70,2013-12-07 06:20:00,
2013-12-07 01:30:00,67.2,66.0,30.15,West,264,0.0,0.0,96,0.00,,,0.00,Weather View 32 v70,2013-12-07 06:30:00,
2013-12-07 01:39:00,66.6,65.4,30.15,West,264,0.0,0.0,96,0.00,,,0.00,Weather View 32 v70,2013-12-07 06:39:00,
2013-12-07 01:49:00,66.0,64.8,30.15,West,264,0.0,0.0,96,0.00,,,0.00,Weather View 32 v70,2013-12-07 06:49:00,
2013-12-07 01:54:00,66.0,64.8,30.15,West,264,0.0,0.0,96,0.00,,,0.00,Weather View 32 v70,2013-12-07 06:54:00,
2013-12-07 02:00:00,65.9,65.0,30.15,West,264,0.0,0.0,97,0.00,,,0.00,Weather View 32 v70,2013-12-07 07:00:00,
2013-12-07 02:10:00,66.0,65.1,30.14,West,264,0.0,0.0,97,0.00,,,0.00,Weather View 32 v70,2013-12-07 07:10:00,
2013-12-07 02:20:00,66.0,65.1,30.15,West,264,0.0,0.0,97,0.00,,,0.00,Weather View 32 v70,2013-12-07 07:20:00,
2013-12-07 02:30:00,66.3,65.4,30.15,West,264,0.0,0.0,97,0.00,,,0.00,Weather View 32 v70,2013-12-07 07:30:00,
2013-12-07 02:40:00,66.2,65.3,30.15,West,264,0.0,0.0,97,0.00,,,0.00,Weather View 32 v70,2013-12-07 07:40:00,
2013-12-07 02:50:00,66.7,65.8,30.15,West,264,0.0,0.0,97,0.00,,,0.00,Weather View 32 v70,2013-12-07 07:50:00,
2013-12-07 02:54:00,66.7,65.8,30.15,West,264,0.0,0.0,97,0.00,,,0.00,Weather View 32 v70,2013-12-07 07:54:00,
2013-12-07 03:00:00,66.9,66.0,30.15,West,264,0.0,0.0,97,0.00,,,0.00,Weather View 32 v70,2013-12-07 08:00:00,
2013-12-07 03:10:00,66.8,65.9,30.15,West,264,0.0,0.0,97,0.00,,,0.00,Weather View 32 v70,2013-12-07 08:10:00,
2013-12-07 03:19:00,66.9,66.0,30.15,West,264,0.0,0.0,97,0.00,,,0.00,Weather View 32 v70,2013-12-07 08:19:00,
2013-12-07 03:29:00,66.3,65.4,30.15,West,264,0.0,0.0,97,0.00,,,0.00,Weather View 32 v70,2013-12-07 08:29:00,
2013-12-07 03:39:00,65.9,65.0,30.15,West,264,0.0,0.0,97,0.00,,,0.00,Weather View 32 v70,2013-12-07 08:39:00,
2013-12-07 03:49:00,65.7,64.8,30.15,West,264,0.0,0.0,97,0.00,,,0.00,Weather View 32 v70,2013-12-07 08:49:00,
2013-12-07 03:55:00,65.7,64.8,30.15,West,264,0.0,0.0,97,0.00,,,0.00,Weather View 32 v70,2013-12-07 08:55:00,
2013-12-07 04:09:00,66.0,65.1,30.15,West,264,0.0,0.0,97,0.00,,,0.00,Weather View 32 v70,2013-12-07 09:09:00,
2013-12-07 04:19:00,65.7,64.8,30.15,West,264,0.0,0.0,97,0.00,,,0.00,Weather View 32 v70,2013-12-07 09:19:00,
2013-12-07 04:29:00,66.2,65.6,30.15,West,264,0.0,0.0,98,0.00,,,0.00,Weather View 32 v70,2013-12-07 09:29:00,
2013-12-07 04:39:00,67.2,66.6,30.15,SW,214,0.0,2.0,98,0.00,,,0.00,Weather View 32 v70,2013-12-07 09:39:00,
2013-12-07 04:49:00,67.4,66.8,30.15,SW,214,0.0,2.0,98,0.00,,,0.00,Weather View 32 v70,2013-12-07 09:49:00,
2013-12-07 04:55:00,67.4,66.8,30.15,SW,214,0.0,2.0,98,0.00,,,0.00,Weather View 32 v70,2013-12-07 09:55:00,
2013-12-07 04:59:00,66.7,65.8,30.15,SW,214,0.0,2.0,97,0.00,,,0.00,Weather View 32 v70,2013-12-07 09:59:00,
2013-12-07 05:09:00,65.8,64.9,30.15,SW,214,0.0,2.0,97,0.00,,,0.00,Weather View 32 v70,2013-12-07 10:09:00,
2013-12-07 05:20:00,65.2,64.3,30.15,SW,214,0.0,2.0,97,0.00,,,0.00,Weather View 32 v70,2013-12-07 10:20:00,
2013-12-07 05:30:00,65.2,64.3,30.16,SW,214,0.0,2.0,97,0.00,,,0.00,Weather View 32 v70,2013-12-07 10:30:00,
2013-12-07 05:40:00,65.1,64.2,30.16,SW,214,0.0,0.0,97,0.00,,,0.00,Weather View 32 v70,2013-12-07 10:40:00,
2013-12-07 05:50:00,64.5,63.6,30.17,SW,214,0.0,0.0,97,0.00,,,0.00,Weather View 32 v70,2013-12-07 10:50:00,
2013-12-07 05:56:00,64.5,63.6,30.17,SW,214,0.0,0.0,97,0.00,,,0.00,Weather View 32 v70,2013-12-07 10:56:00,
2013-12-07 06:00:00,64.5,63.6,30.17,SW,214,0.0,0.0,97,0.00,,,0.00,Weather View 32 v70,2013-12-07 11:00:00,
2013-12-07 06:10:00,65.0,64.4,30.17,SW,214,0.0,0.0,98,0.00,,,0.00,Weather View 32 v70,2013-12-07 11:10:00,
2013-12-07 06:20:00,65.4,64.8,30.18,SW,214,0.0,0.0,98,0.00,,,0.00,Weather View 32 v70,2013-12-07 11:20:00,
2013-12-07 06:30:00,65.6,65.0,30.18,SW,214,0.0,0.0,98,0.00,,,0.00,Weather View 32 v70,2013-12-07 11:30:00,
2013-12-07 06:40:00,66.1,65.5,30.18,SW,214,0.0,0.0,98,0.00,,,0.00,Weather View 32 v70,2013-12-07 11:40:00,
2013-12-07 06:50:00,66.1,65.5,30.18,SW,214,0.0,0.0,98,0.00,,,0.00,Weather View 32 v70,2013-12-07 11:50:00,
2013-12-07 06:56:00,66.1,65.5,30.18,SW,214,0.0,0.0,98,0.00,,,0.00,Weather View 32 v70,2013-12-07 11:56:00,
2013-12-07 07:00:00,65.8,64.9,30.19,SW,214,0.0,0.0,97,0.00,,,0.00,Weather View 32 v70,2013-12-07 12:00:00,
2013-12-07 07:09:00,65.8,64.9,30.19,SW,214,0.0,0.0,97,0.00,,,0.00,Weather View 32 v70,2013-12-07 12:09:00,
2013-12-07 07:19:00,66.2,65.6,30.19,SW,214,0.0,0.0,98,0.00,,,0.00,Weather View 32 v70,2013-12-07 12:19:00,
2013-12-07 07:29:00,66.1,65.5,30.19,SW,214,0.0,0.0,98,0.00,,,0.00,Weather View 32 v70,2013-12-07 12:29:00,
2013-12-07 07:39:00,66.0,65.4,30.19,SW,214,0.0,0.0,98,0.00,,,0.00,Weather View 32 v70,2013-12-07 12:39:00,
2013-12-07 07:49:00,66.0,65.4,30.20,SW,214,0.0,0.0,98,0.00,,,0.00,Weather View 32 v70,2013-12-07 12:49:00,
2013-12-07 07:57:00,66.0,65.4,30.20,SW,214,0.0,0.0,98,0.00,,,0.00,Weather View 32 v70,2013-12-07 12:57:00,
2013-12-07 07:59:00,66.1,65.5,30.20,SW,214,0.0,0.0,98,0.00,,,0.00,Weather View 32 v70,2013-12-07 12:59:00,
2013-12-07 08:09:00,66.4,65.8,30.20,SW,214,0.0,0.0,98,0.00,,,0.00,Weather View 32 v70,2013-12-07 13:09:00,
2013-12-07 08:20:00,66.9,66.3,30.20,SW,214,0.0,0.0,98,0.00,,,0.00,Weather View 32 v70,2013-12-07 13:20:00,
2013-12-07 08:30:00,67.3,66.7,30.21,SW,214,0.0,0.0,98,0.00,,,0.00,Weather View 32 v70,2013-12-07 13:30:00,
2013-12-07 08:39:00,67.5,66.6,30.21,SW,214,0.0,0.0,97,0.00,,,0.00,Weather View 32 v70,2013-12-07 13:39:00,
2013-12-07 08:50:00,67.7,66.8,30.21,SW,214,0.0,0.0,97,0.00,,,0.00,Weather View 32 v70,2013-12-07 13:50:00,
2013-12-07 08:59:00,67.7,66.8,30.21,SW,214,0.0,0.0,97,0.00,,,0.00,Weather View 32 v70,2013-12-07 13:59:00,
2013-12-07 09:00:00,68.6,67.7,30.21,SW,214,0.0,0.0,97,0.00,,,0.00,Weather View 32 v70,2013-12-07 14:00:00,
2013-12-07 09:10:00,69.5,68.6,30.22,SE,146,3.0,4.0,97,0.00,,,0.00,Weather View 32 v70,2013-12-07 14:10:00,
2013-12-07 09:20:00,70.5,69.0,30.22,SSE,166,2.0,5.0,95,0.00,,,0.00,Weather View 32 v70,2013-12-07 14:20:00,
2013-12-07 09:30:00,71.2,69.4,30.22,SSE,160,1.0,5.0,94,0.00,,,0.00,Weather View 32 v70,2013-12-07 14:30:00,
2013-12-07 09:40:00,72.3,69.8,30.22,SSE,163,1.0,5.0,92,0.00,,,0.00,Weather View 32 v70,2013-12-07 14:40:00,
2013-12-07 09:49:00,73.3,70.5,30.22,SSW,213,2.0,7.0,91,0.00,,,0.00,Weather View 32 v70,2013-12-07 14:49:00,
2013-12-07 09:59:00,73.3,70.5,30.22,SSW,213,2.0,7.0,91,0.00,,,0.00,Weather View 32 v70,2013-12-07 14:59:00,
2013-12-07 10:09:00,74.9,70.8,30.22,SSE,149,2.0,8.0,87,0.00,,,0.00,Weather View 32 v70,2013-12-07 15:09:00,
2013-12-07 10:20:00,75.3,70.8,30.22,SSW,201,0.0,8.0,86,0.00,,,0.00,Weather View 32 v70,2013-12-07 15:20:00,
2013-12-07 10:30:00,75.1,69.9,30.22,SSE,156,5.0,8.0,84,0.00,,,0.00,Weather View 32 v70,2013-12-07 15:30:00,
2013-12-07 10:40:00,74.5,69.7,30.22,SSE,153,4.0,8.0,85,0.00,,,0.00,Weather View 32 v70,2013-12-07 15:40:00,
2013-12-07 10:50:00,75.5,70.0,30.22,SSE,162,1.0,8.0,83,0.00,,,0.00,Weather View 32 v70,2013-12-07 15:50:00,
2013-12-07 11:00:00,75.5,70.0,30.22,SSE,161,3.0,8.0,83,0.00,,,0.00,Weather View 32 v70,2013-12-07 16:00:00,
2013-12-07 11:10:00,76.2,69.9,30.22,South,177,1.0,12.0,81,0.00,,,0.00,Weather View 32 v70,2013-12-07 16:10:00,
2013-12-07 11:20:00,77.3,69.9,30.21,SSE,165,6.0,12.0,78,0.00,,,0.00,Weather View 32 v70,2013-12-07 16:20:00,
2013-12-07 11:30:00,78.0,70.2,30.21,SE,138,2.0,12.0,77,0.00,,,0.00,Weather View 32 v70,2013-12-07 16:30:00,
2013-12-07 11:40:00,77.8,69.2,30.20,SSE,161,2.0,12.0,75,0.00,,,0.00,Weather View 32 v70,2013-12-07 16:40:00,
2013-12-07 11:50:00,78.4,69.8,30.20,WSW,244,2.0,15.0,75,0.00,,,0.00,Weather View 32 v70,2013-12-07 16:50:00,
2013-12-07 12:00:00,78.1,69.9,30.20,SSE,166,5.0,15.0,76,0.00,,,0.00,Weather View 32 v70,2013-12-07 17:00:00,
2013-12-07 12:09:00,78.5,69.9,30.19,SSE,156,6.0,15.0,75,0.00,,,0.00,Weather View 32 v70,2013-12-07 17:09:00,
2013-12-07 12:19:00,78.1,69.5,30.19,SSW,195,3.0,15.0,75,0.00,,,0.00,Weather View 32 v70,2013-12-07 17:19:00,
2013-12-07 12:29:00,78.5,69.5,30.18,South,173,3.0,15.0,74,0.00,,,0.00,Weather View 32 v70,2013-12-07 17:29:00,
2013-12-07 12:40:00,79.5,70.4,30.18,SSE,153,2.0,15.0,74,0.00,,,0.00,Weather View 32 v70,2013-12-07 17:40:00,
2013-12-07 12:50:00,78.9,69.1,30.17,South,174,6.0,10.0,72,0.00,,,0.00,Weather View 32 v70,2013-12-07 17:50:00,
2013-12-07 13:00:00,79.2,69.4,30.17,SE,136,1.0,10.0,72,0.00,,,0.00,Weather View 32 v70,2013-12-07 18:00:00,
2013-12-07 13:01:00,79.2,69.4,30.17,SE,136,1.0,10.0,72,0.00,,,0.00,Weather View 32 v70,2013-12-07 18:01:00,
2013-12-07 13:10:00,80.1,69.4,30.16,West,265,0.0,10.0,70,0.00,,,0.00,Weather View 32 v70,2013-12-07 18:10:00,
2013-12-07 13:20:00,80.7,69.5,30.16,SSW,192,0.0,10.0,69,0.00,,,0.00,Weather View 32 v70,2013-12-07 18:20:00,
2013-12-07 13:30:00,80.7,69.5,30.15,SW,219,1.0,9.0,69,0.00,,,0.00,Weather View 32 v70,2013-12-07 18:30:00,
2013-12-07 13:40:00,80.0,68.9,30.15,West,272,3.0,8.0,69,0.00,,,0.00,Weather View 32 v70,2013-12-07 18:40:00,
2013-12-07 13:50:00,81.1,68.6,30.14,South,187,0.0,8.0,66,0.00,,,0.00,Weather View 32 v70,2013-12-07 18:50:00,
2013-12-07 14:00:00,80.7,68.2,30.14,SSE,161,5.0,9.0,66,0.00,,,0.00,Weather View 32 v70,2013-12-07 19:00:00,
2013-12-07 14:01:00,80.7,68.2,30.14,SSE,161,5.0,9.0,66,0.00,,,0.00,Weather View 32 v70,2013-12-07 19:01:00,
2013-12-07 14:10:00,79.7,68.6,30.14,SSE,158,1.0,9.0,69,0.00,,,0.00,Weather View 32 v70,2013-12-07 19:10:00,
2013-12-07 14:20:00,80.6,69.0,30.14,WSW,248,0.0,9.0,68,0.00,,,0.00,Weather View 32 v70,2013-12-07 19:20:00,
2013-12-07 14:29:00,80.9,69.3,30.14,West,279,0.0,9.0,68,0.00,,,0.00,Weather View 32 v70,2013-12-07 19:29:00,
2013-12-07 14:39:00,81.7,69.2,30.14,SW,236,2.0,9.0,66,0.00,,,0.00,Weather View 32 v70,2013-12-07 19:39:00,
2013-12-07 14:49:00,81.4,69.3,30.13,West,276,2.0,9.0,67,0.00,,,0.00,Weather View 32 v70,2013-12-07 19:49:00,
2013-12-07 14:59:00,81.8,69.3,30.13,SW,231,0.0,7.0,66,0.00,,,0.00,Weather View 32 v70,2013-12-07 19:59:00,
2013-12-07 15:02:00,81.8,69.3,30.13,SW,231,0.0,7.0,66,0.00,,,0.00,Weather View 32 v70,2013-12-07 20:02:00,
2013-12-07 15:09:00,81.8,69.3,30.13,WSW,244,1.0,7.0,66,0.00,,,0.00,Weather View 32 v70,2013-12-07 20:09:00,
2013-12-07 15:20:00,80.6,69.0,30.13,West,273,0.0,6.0,68,0.00,,,0.00,Weather View 32 v70,2013-12-07 20:20:00,
2013-12-07 15:30:00,81.1,69.1,30.13,WNW,284,1.0,6.0,67,0.00,,,0.00,Weather View 32 v70,2013-12-07 20:30:00,
2013-12-07 15:40:00,81.4,68.9,30.13,SW,234,1.0,6.0,66,0.00,,,0.00,Weather View 32 v70,2013-12-07 20:40:00,
2013-12-07 15:50:00,81.2,68.7,30.13,SW,234,0.0,6.0,66,0.00,,,0.00,Weather View 32 v70,2013-12-07 20:50:00,
2013-12-07 16:00:00,81.2,69.2,30.13,West,264,0.0,4.0,67,0.00,,,0.00,Weather View 32 v70,2013-12-07 21:00:00,
2013-12-07 16:02:00,81.2,69.2,30.13,West,264,0.0,4.0,67,0.00,,,0.00,Weather View 32 v70,2013-12-07 21:02:00,
2013-12-07 16:10:00,80.5,69.3,30.13,West,263,0.0,4.0,69,0.00,,,0.00,Weather View 32 v70,2013-12-07 21:10:00,
2013-12-07 16:20:00,79.7,69.0,30.13,West,263,0.0,3.0,70,0.00,,,0.00,Weather View 32 v70,2013-12-07 21:20:00,
2013-12-07 16:30:00,78.5,69.1,30.13,West,263,0.0,3.0,73,0.00,,,0.00,Weather View 32 v70,2013-12-07 21:30:00,
2013-12-07 16:40:00,77.3,68.3,30.13,West,263,0.0,2.0,74,0.00,,,0.00,Weather View 32 v70,2013-12-07 21:40:00,
2013-12-07 16:50:00,77.1,68.5,30.14,West,263,0.0,2.0,75,0.00,,,0.00,Weather View 32 v70,2013-12-07 21:50:00,
2013-12-07 17:00:00,76.7,68.9,30.14,West,263,0.0,1.0,77,0.00,,,0.00,Weather View 32 v70,2013-12-07 22:00:00,
2013-12-07 17:03:00,76.7,68.9,30.14,West,263,0.0,1.0,77,0.00,,,0.00,Weather View 32 v70,2013-12-07 22:03:00,
2013-12-07 17:10:00,76.3,69.3,30.14,West,263,0.0,0.0,79,0.00,,,0.00,Weather View 32 v70,2013-12-07 22:10:00,
2013-12-07 17:20:00,75.6,69.3,30.14,West,263,0.0,0.0,81,0.00,,,0.00,Weather View 32 v70,2013-12-07 22:20:00,
2013-12-07 17:30:00,74.8,69.3,30.14,West,263,0.0,0.0,83,0.00,,,0.00,Weather View 32 v70,2013-12-07 22:30:00,
2013-12-07 17:40:00,74.2,69.0,30.15,West,263,0.0,0.0,84,0.00,,,0.00,Weather View 32 v70,2013-12-07 22:40:00,
2013-12-07 17:49:00,73.6,68.8,30.15,West,263,0.0,0.0,85,0.00,,,0.00,Weather View 32 v70,2013-12-07 22:49:00,
2013-12-07 17:59:00,72.9,68.4,30.15,West,263,0.0,0.0,86,0.00,,,0.00,Weather View 32 v70,2013-12-07 22:59:00,
2013-12-07 18:03:00,72.9,68.4,30.15,West,263,0.0,0.0,86,0.00,,,0.00,Weather View 32 v70,2013-12-07 23:03:00,
2013-12-07 18:09:00,72.2,68.1,30.15,West,263,0.0,0.0,87,0.00,,,0.00,Weather View 32 v70,2013-12-07 23:09:00,
2013-12-07 18:19:00,71.0,67.6,30.16,West,263,0.0,0.0,89,0.00,,,0.00,Weather View 32 v70,2013-12-07 23:19:00,
2013-12-07 18:29:00,70.7,67.6,30.16,West,263,0.0,0.0,90,0.00,,,0.00,Weather View 32 v70,2013-12-07 23:29:00,
2013-12-07 18:40:00,70.0,67.2,30.16,West,263,0.0,0.0,91,0.00,,,0.00,Weather View 32 v70,2013-12-07 23:40:00,
2013-12-07 18:50:00,69.9,67.5,30.16,West,263,0.0,0.0,92,0.00,,,0.00,Weather View 32 v70,2013-12-07 23:50:00,
2013-12-07 19:00:00,69.3,66.9,30.17,West,263,0.0,0.0,92,0.00,,,0.00,Weather View 32 v70,2013-12-08 00:00:00,
2013-12-07 19:10:00,69.6,67.8,30.17,West,263,0.0,0.0,94,0.00,,,0.00,Weather View 32 v70,2013-12-08 00:10:00,
2013-12-07 19:20:00,69.4,67.6,30.17,West,263,0.0,0.0,94,0.00,,,0.00,Weather View 32 v70,2013-12-08 00:20:00,
2013-12-07 19:30:00,69.3,67.5,30.17,West,263,0.0,0.0,94,0.00,,,0.00,Weather View 32 v70,2013-12-08 00:30:00,
2013-12-07 19:39:00,69.0,67.2,30.18,West,263,0.0,0.0,94,0.00,,,0.00,Weather View 32 v70,2013-12-08 00:39:00,
2013-12-07 19:50:00,68.1,66.3,30.18,West,263,0.0,0.0,94,0.00,,,0.00,Weather View 32 v70,2013-12-08 00:50:00,
2013-12-07 19:59:00,67.6,65.8,30.18,West,263,0.0,0.0,94,0.00,,,0.00,Weather View 32 v70,2013-12-08 00:59:00,
2013-12-07 20:05:00,67.6,65.8,30.18,West,263,0.0,0.0,94,0.00,,,0.00,Weather View 32 v70,2013-12-08 01:05:00,
2013-12-07 20:20:00,67.8,66.3,30.19,NE,36,0.0,2.0,95,0.00,,,0.00,Weather View 32 v70,2013-12-08 01:20:00,
2013-12-07 20:30:00,67.7,66.2,30.19,NE,36,0.0,2.0,95,0.00,,,0.00,Weather View 32 v70,2013-12-08 01:30:00,
2013-12-07 20:40:00,68.1,66.6,30.19,NE,36,0.0,2.0,95,0.00,,,0.00,Weather View 32 v70,2013-12-08 01:40:00,
2013-12-07 20:49:00,68.4,66.9,30.19,NE,36,0.0,2.0,95,0.00,,,0.00,Weather View 32 v70,2013-12-08 01:49:00,
2013-12-07 20:59:00,68.6,67.1,30.19,NE,36,0.0,2.0,95,0.00,,,0.00,Weather View 32 v70,2013-12-08 01:59:00,
2013-12-07 21:06:00,68.6,67.1,30.19,NE,36,0.0,2.0,95,0.00,,,0.00,Weather View 32 v70,2013-12-08 02:06:00,
2013-12-07 21:10:00,68.6,67.1,30.19,NE,36,0.0,2.0,95,0.00,,,0.00,Weather View 32 v70,2013-12-08 02:10:00,
2013-12-07 21:20:00,68.9,67.4,30.20,NE,35,0.0,0.0,95,0.00,,,0.00,Weather View 32 v70,2013-12-08 02:20:00,
2013-12-07 21:30:00,69.1,67.3,30.20,NE,36,0.0,0.0,94,0.00,,,0.00,Weather View 32 v70,2013-12-08 02:30:00,
2013-12-07 21:40:00,69.2,67.4,30.20,NE,36,0.0,0.0,94,0.00,,,0.00,Weather View 32 v70,2013-12-08 02:40:00,
2013-12-07 21:50:00,68.6,66.8,30.20,NE,36,0.0,0.0,94,0.00,,,0.00,Weather View 32 v70,2013-12-08 02:50:00,
2013-12-07 22:00:00,68.3,66.5,30.20,NE,36,0.0,0.0,94,0.00,,,0.00,Weather View 32 v70,2013-12-08 03:00:00,
2013-12-07 22:07:00,68.3,66.5,30.20,NE,36,0.0,0.0,94,0.00,,,0.00,Weather View 32 v70,2013-12-08 03:07:00,
2013-12-07 22:20:00,68.7,66.9,30.20,NE,36,0.0,0.0,94,0.00,,,0.00,Weather View 32 v70,2013-12-08 03:20:00,
2013-12-07 22:30:00,68.6,66.8,30.20,NE,36,0.0,0.0,94,0.00,,,0.00,Weather View 32 v70,2013-12-08 03:30:00,
2013-12-07 22:40:00,68.4,66.6,30.20,NE,36,0.0,0.0,94,0.00,,,0.00,Weather View 32 v70,2013-12-08 03:40:00,
2013-12-07 22:50:00,68.3,66.8,30.21,NE,36,0.0,0.0,95,0.00,,,0.00,Weather View 32 v70,2013-12-08 03:50:00,
2013-12-07 23:00:00,68.1,66.6,30.21,NE,36,0.0,0.0,95,0.00,,,0.00,Weather View 32 v70,2013-12-08 04:00:00,
2013-12-07 23:07:00,68.1,66.6,30.21,NE,36,0.0,0.0,95,0.00,,,0.00,Weather View 32 v70,2013-12-08 04:07:00,
2013-12-07 23:09:00,68.4,66.9,30.20,NE,36,0.0,0.0,95,0.00,,,0.00,Weather View 32 v70,2013-12-08 04:09:00,
2013-12-07 23:19:00,68.5,67.0,30.20,NE,36,0.0,0.0,95,0.00,,,0.00,Weather View 32 v70,2013-12-08 04:19:00,
2013-12-07 23:30:00,68.9,67.1,30.20,NE,44,0.0,0.0,94,0.00,,,0.00,Weather View 32 v70,2013-12-08 04:30:00,
2013-12-07 23:40:00,68.6,67.1,30.20,NE,44,0.0,0.0,95,0.00,,,0.00,Weather View 32 v70,2013-12-08 04:40:00,
2013-12-07 23:50:00,67.3,65.5,30.20,NE,44,0.0,0.0,94,0.00,,,0.00,Weather View 32 v70,2013-12-08 04:50:00,